Regional Weather Roundup
Issued by NWS

Home | Current Version | Previous Version | Text Only | Print | Product List | Glossary Off
Versions: 1 2 3 4 5 6 7 8 9 10 11 12 13 14 15 16 17 18 19 20 21 22 23 24 25 26 27 28 29 30 31 32 33 34 35 36 37 38 39 40 41 42 43 44 45 46 47 48 49 50

719
ASUS43 KLOT 251603
RWRIL

ILLINOIS REGIONAL WEATHER ROUNDUP
NATIONAL WEATHER SERVICE CHICAGO/ROMEOVILLE IL
1000 AM CST SAT FEB 25 2017

NOTE: "FAIR" INDICATES FEW OR NO CLOUDS BELOW 12,000 FEET WITH NO
SIGNIFICANT WEATHER AND/OR OBSTRUCTIONS TO VISIBILITY.

* THESE STATIONS ARE NOT UNDER NWS QUALITY CONTROL. THEY ALSO MAY NOT
  REPORT WEATHER SUCH AS PRECIPITATION OR FOG.

ILZ001-002-007-009-015-016-024-251700-
NORTHWEST ILLINOIS

CITY           SKY/WX    TMP DP  RH WIND       PRES   REMARKS
MOLINE         MOSUNNY   23  12  62 W20G31    29.96R WCI   8
STERLING*      FLURRIES  24  17  74 W18       29.90R WCI  10
$$

ILZ003-004-008-010-011-017-018-251700-
NORTH CENTRAL ILLINOIS

CITY           SKY/WX    TMP DP  RH WIND       PRES   REMARKS
ROCKFORD       PTSUNNY   21  11  65 W23G31    29.87R WCI   5
FREEPORT*      LGT SNOW  20  13  76 W20       29.88R WCI   4
ROCHELLE*      CLOUDY    21  13  71 NW21      29.87R WCI   6
DE KALB*       LGT SNOW  22  16  79 W22G30    29.84R WCI   6
PERU*          CLOUDY    22  13  68 W20G30    29.91R WCI   7
$$

ILZ005-006-012>014-019>023-251700-
NORTHEAST ILLINOIS

CITY           SKY/WX    TMP DP  RH WIND       PRES   REMARKS
CHICAGO-OHARE  FLURRIES  24  14  65 W16G25    29.82R WCI  11
CHICAGO-MIDWAY FLURRIES  24  13  62 W18       29.83R WCI  10
AURORA         CLOUDY    24  14  65 NW20      29.85R WCI  10
LANSING*       CLOUDY    24  16  72 W18G25    29.84R WCI  10
JOLIET*        LGT SNOW  25  17  70 W9G21     29.87R WCI  15
WAUKEGAN       LGT SNOW  23  14  68 W9G20     29.79R WCI  13
DUPAGE AIRPORT FLURRIES  22  13  68 NW14G26   29.83R WCI   9
KANKAKEE*      FLURRIES  24  15  68 W16G26    29.88R WCI  11
WHEELING       FLURRIES  22  13  68 W12       29.83R WCI  10
MORRIS*        LGT SNOW  25  17  72 W20       29.87R WCI  10
ROMEOVILLE*    LGT SNOW  23  18  82 W17       29.86R WCI   9
NORTHERLY ISL    N/A     23  14  68 W14         N/A  WCI  11
$$

LMZ740>746-251700-
SOUTHERN LAKE MICHIGAN

STATION/POSITION SKY/WX   TEMP    WIND        PRES    VSBY  WAVE
                          AIR SEA DIR/SP/G                  HT/PER
                          (F)     (DEG/KT/KT) (MB)    (MI)  (FT/S)
HARRISON CRIB              23     300/ 20/ 23   N/A
BURNHAM HARBOR             23     230/ 12/ 16   N/A
CALUMET HARBOR             23     280/ 10/ 17 1009.4R
BURNS HARBOR               25     280/ 20/ 24 1009.8R
MICHIGAN CITY              24     250/ 25/ 29   N/A
$$

ILZ025>027-034>036-040-047-049-050-058-095>099-251700-
WEST-CENTRAL ILLINOIS

CITY           SKY/WX    TMP DP  RH WIND       PRES   REMARKS
QUINCY         PTSUNNY   26  16  65 NW18      30.03S WCI  13
GALESBURG*     PTSUNNY   22  15  74 W22G28    29.96S WCI   6
MACOMB*        PTSUNNY   24  17  75 NW22G30   30.02S WCI   8
JACKSONVILLE*  PTSUNNY   28  17  62 W22G29    30.02R WCI  14
PITTSFIELD*    PTSUNNY   26  17  66 W16       30.05S WCI  14
$$

ILZ028>032-037-038-041>044-048-051>054-059>061-251700-
CENTRAL ILLINOIS

CITY           SKY/WX    TMP DP  RH WIND       PRES   REMARKS
PONTIAC        CLOUDY    27  15  61 W22G28    29.91R WCI  12
BLOOMINGTON    FLURRIES  27  17  66 W22G28    29.92R WCI  13
DECATUR        PTSUNNY   27  14  58 NW23G30   29.96R WCI  12
PEORIA         PTSUNNY   24  13  62 NW18G25   29.96R WCI  10
LACON*         CLOUDY    25  14  63 W16G24    29.93R WCI  12
LINCOLN*       MOSUNNY   28  16  62 W14G24    29.97R WCI  17
SPRINGFIELD    MOSUNNY   29  14  53 NW20G32   30.00R WCI  16
TAYLORVILLE    MOSUNNY   28  14  57 W17G25    30.00S WCI  15
$$

ILZ033-039-045-046-055>057-062-063-251700-
EAST-CENTRAL ILLINOIS

CITY           SKY/WX    TMP DP  RH WIND       PRES   REMARKS
CHAMPAIGN      FLURRIES  27  18  69 W22G35    29.92R WCI  13
RANTOUL*       CLOUDY    28  20  72 W21G28    29.91R WCI  14
MATTOON        CLOUDY    28  17  63 NW25G31   29.95S WCI  13
PARIS*         CLOUDY    28  18  64 W21G36    29.95R WCI  15
$$

ILZ079-100>102-251700-
SOUTHWEST ILLINOIS

CITY           SKY/WX    TMP DP  RH WIND       PRES   REMARKS
ALTON          MOSUNNY   30  14  51 NW17G25   30.06R WCI  18
BELLEVILLE     PTSUNNY   32  14  47 W14G22    30.05R WCI  22
CAHOKIA*       MOSUNNY   33  12  41 NW22G28   30.07R WCI  21
SPARTA*        MOSUNNY   32  14  48 NW14G23   30.07S WCI  22
$$

ILZ064>066-069>071-074>076-080>082-084>086-088>090-092>094-251700-
SOUTH-CENTRAL ILLINOIS

CITY           SKY/WX    TMP DP  RH WIND       PRES   REMARKS
CARBONDALE     MOSUNNY   34  18  52 NW12G20   30.06S WCI  25
CAIRO*         MOSUNNY   34  20  56 W9G20     30.09R WCI  27
EFFINGHAM*     MOSUNNY   30  19  62 W22G29    30.01R WCI  17
MARION         PTSUNNY   37  21  52 NW12G21   30.06S WCI  30
MT. VERNON     PTSUNNY   33  16  49 W14G24    30.04R WCI  23
CENTRALIA*     PTSUNNY   32  19  57 W17G23    30.03S WCI  21
SALEM*         PTSUNNY   32  16  51 NW17G25   30.03R WCI  21
METROPOLIS*    MOSUNNY   35  19  51 NW14G21   30.08R WCI  26
$$

ILZ067-068-072-073-078-083-087-091-251700-
SOUTHEAST ILLINOIS

CITY           SKY/WX    TMP DP  RH WIND       PRES   REMARKS
LAWRENCEVILLE  FLURRIES  30  22  72 W13       30.00R WCI  20
FLORA*         PTSUNNY   33  17  51 W17G23    30.02R WCI  23
FAIRFIELD*     CLOUDY    32  19  57 W8        30.02R WCI  25
HARRISBURG*    CLOUDY    34  21  59 W17       30.05S WCI  23
ROBINSON*      LGT SNOW  28  22  77 W14G23    30.00R WCI  17
CARMI*         PTSUNNY   33  23  67 W15G22    30.03R WCI  22
$$

ABBREVIATIONS USED IN REMARKS
   TC - TEMPERATURE IN CELSIUS
  WCI - WIND CHILL INDEX
   HX - HEAT INDEX
  VSB - VISIBILITY
$$





USA.gov is the U.S. government's official web portal to all federal, state and local government web resources and services.